DECAYED

STARLINK-30302, 57664 (Decayed)

Orbit data source: Space-Track

STARLINK-30302, 57664 was a payload satellite owned by SpaceX/Seattle (US) in LEO that was launched on Tue, 22 Aug 2023 UTC via an FALCON 9 launch vehicle from the Air Force Western Test Range (AFWTR). Payload-class satellites include a variety of spacecraft equipped with specific instruments for various scientific and technological missions. These include communications satellites like Starlink; space stations such as the ISS; scientific satellites like the Hubble; Earth observation satellites from companies like Planet Labs, Umbra, and HawkEye 360; GPS; miniature CubeSats for education and research; and military/defense satellites.

Not visible in the next 10 days
Identifier
57664, 2023-124B
Orbit
Decayed
Country
Flag of USUS
Related business
Manufacturer
SpaceX/Seattle
Mission
Decayed Commercial Communications
Bus & Motor
STARLINK V2M, Unknown motor
Mass
730 kg wet, ~700 kg dry
Launch date (UTC)
2023-08-22 (3 years ago)
Launch vehicle
FALCON 9
Launch site
Air Force Western Test Range (AFWTR)
Object type
Payload
Rocket body
Debris
Shape & HBR
Box + 2 Pan, 17.7 m
Radar Cross Section
33.884 m², Large (>1 m²)

Expand to show TLE details & history
Last TLE update: 1 year ago

TLE from 1 year ago
0 STARLINK-30302
1 57664U 23124B   25058.48334441  .48279878  12340-4  54315-2 0  9998
2 57664  53.1263 134.3133 0005828   4.3208  95.5283 16.36224406 86323
Epoch: 2025-02-27T11:36Z
TLE epoch observation values (Epoch: 2025-02-27T11:36:00.957Z)
Latitude
52.15743°
Longitude
-90.98817°
Altitude
182.494 km
Speed
7.803 km/s
True Right ascension
16h 02m 17s
True Declination
51° 58' 34"
Sunlit
Object was in daylight at epoch
Visualization orbit readout
Latitude
Unknown
Longitude
Unknown
Altitude
Unknown
Speed
Unknown
Apparent Right ascension
Unknown
Apparent Declination
Unknown
Sunlit
N/A
Visualization observer readout
Local Sidereal Time
21:28:31
Azimuth
Unknown
Elevation
Unknown
Doppler factor
Unknown
Orbital elements
Apogee altitude
179.959 km
Perigee altitude
172.319 km
Semi-major axis
6,554.276 km
Eccentricity
0.00058
Inclination
53.1263°
RAAN
134.3133°
Arg. of periapsis
4.3208°
True anomaly
95.59477°
Mean anomaly
95.5283°
Eccentric anomaly
95.56153°
Mean motion
4.09031 °/min
Orbital period
88.01 mins
BSTAR
0.0054315
Loading maneuver chart data...
Computing Atmospheric mass density...
Loading historical data...
Loading historical data...
Loading historical data...
Loading historical data...
Loading historical data...
Loading historical data...
Loading historical data...

Documentation

Showing up to 5 results
|